Time,TemperatureF,DewpointF,PressureIn,WindDirection,WindDirectionDegrees,WindSpeedMPH,WindSpeedGustMPH,Humidity,HourlyPrecipIn,Conditions,Clouds,dailyrainin,SoftwareType,DateUTC
2013-03-25 00:01:00,18.0,1.0,-100.00,SSE,150,1.0,2.0,47,0.00,,,-99.99,,2013-03-25 06:01:00,
2013-03-25 00:12:00,18.0,1.0,-100.00,SE,145,1.0,2.0,48,0.00,,,-99.99,,2013-03-25 06:12:00,
2013-03-25 00:22:00,18.0,2.0,-100.00,NE,35,1.0,3.0,49,0.00,,,-99.99,,2013-03-25 06:22:00,
2013-03-25 00:32:00,17.0,2.0,-100.00,SE,135,1.0,2.0,49,0.00,,,-99.99,,2013-03-25 06:32:00,
2013-03-25 00:42:00,17.0,2.0,-100.00,NE,55,0.0,4.0,50,0.00,,,-99.99,,2013-03-25 06:42:00,
2013-03-25 00:52:00,17.0,2.0,-100.00,SE,130,0.0,2.0,50,0.00,,,-99.99,,2013-03-25 06:52:00,
2013-03-25 01:02:00,17.0,2.0,-100.00,NNE,20,1.0,3.0,50,0.00,,,-99.99,,2013-03-25 07:02:00,
2013-03-25 01:12:00,17.0,2.0,-100.00,SE,135,0.0,1.0,50,0.00,,,-99.99,,2013-03-25 07:12:00,
2013-03-25 01:21:00,17.0,2.0,-100.00,NNE,15,1.0,3.0,51,0.00,,,-99.99,,2013-03-25 07:21:00,
2013-03-25 01:31:00,16.0,2.0,-100.00,South,170,0.0,3.0,52,0.00,,,-99.99,,2013-03-25 07:31:00,
2013-03-25 01:42:00,16.0,2.0,-100.00,NW,320,1.0,2.0,52,0.00,,,-99.99,,2013-03-25 07:42:00,
2013-03-25 01:52:00,16.0,2.0,-100.00,SSW,210,0.0,3.0,52,0.00,,,-99.99,,2013-03-25 07:52:00,
2013-03-25 02:02:00,16.0,2.0,-100.00,East,90,0.0,1.0,53,0.00,,,-99.99,,2013-03-25 08:02:00,
2013-03-25 02:11:00,15.0,2.0,-100.00,ESE,120,0.0,1.0,53,0.00,,,-99.99,,2013-03-25 08:11:00,
2013-03-25 02:22:00,15.0,2.0,-100.00,NE,40,0.0,2.0,54,0.00,,,-99.99,,2013-03-25 08:22:00,
2013-03-25 02:32:00,15.0,2.0,-100.00,East,90,1.0,2.0,55,0.00,,,-99.99,,2013-03-25 08:32:00,
2013-03-25 02:42:00,15.0,2.0,-100.00,ESE,105,0.0,2.0,56,0.00,,,-99.99,,2013-03-25 08:42:00,
2013-03-25 02:52:00,14.0,2.0,-100.00,NW,325,0.0,1.0,56,0.00,,,-99.99,,2013-03-25 08:52:00,
2013-03-25 03:02:00,14.0,2.0,-100.00,ENE,60,1.0,2.0,57,0.00,,,-99.99,,2013-03-25 09:02:00,
2013-03-25 03:11:00,14.0,2.0,-100.00,NNE,25,0.0,1.0,57,0.00,,,-99.99,,2013-03-25 09:11:00,
2013-03-25 03:22:00,14.0,2.0,-100.00,NE,40,0.0,1.0,58,0.00,,,-99.99,,2013-03-25 09:22:00,
2013-03-25 03:32:00,14.0,2.0,-100.00,ESE,115,0.0,1.0,59,0.00,,,-99.99,,2013-03-25 09:32:00,
2013-03-25 03:42:00,14.0,2.0,-100.00,ESE,120,1.0,1.0,59,0.00,,,-99.99,,2013-03-25 09:42:00,
2013-03-25 03:52:00,14.0,2.0,-100.00,NE,45,1.0,2.0,60,0.00,,,-99.99,,2013-03-25 09:52:00,
2013-03-25 04:02:00,14.0,3.0,-100.00,North,0,1.0,2.0,61,0.00,,,-99.99,,2013-03-25 10:02:00,
2013-03-25 04:12:00,13.0,2.0,-100.00,West,275,0.0,3.0,61,0.00,,,-99.99,,2013-03-25 10:12:00,
2013-03-25 04:22:00,13.0,2.0,-100.00,SSW,210,0.0,2.0,61,0.00,,,-99.99,,2013-03-25 10:22:00,
2013-03-25 04:32:00,14.0,3.0,-100.00,ENE,75,2.0,3.0,61,0.00,,,-99.99,,2013-03-25 10:32:00,
2013-03-25 04:42:00,13.0,2.0,-100.00,NNE,20,1.0,2.0,61,0.00,,,-99.99,,2013-03-25 10:42:00,
2013-03-25 04:52:00,13.0,2.0,-100.00,NW,315,0.0,2.0,62,0.00,,,-99.99,,2013-03-25 10:52:00,
2013-03-25 05:02:00,13.0,2.0,-100.00,NE,45,1.0,2.0,63,0.00,,,-99.99,,2013-03-25 11:02:00,
2013-03-25 05:12:00,13.0,2.0,-100.00,ENE,60,0.0,3.0,63,0.00,,,-99.99,,2013-03-25 11:12:00,
2013-03-25 05:23:00,13.0,3.0,-100.00,NE,50,1.0,3.0,64,0.00,,,-99.99,,2013-03-25 11:23:00,
2013-03-25 05:32:00,13.0,3.0,-100.00,WSW,255,1.0,2.0,64,0.00,,,-99.99,,2013-03-25 11:32:00,
2013-03-25 05:42:00,12.0,3.0,-100.00,South,190,0.0,2.0,65,0.00,,,-99.99,,2013-03-25 11:42:00,
2013-03-25 05:52:00,12.0,3.0,-100.00,NNE,30,1.0,2.0,65,0.00,,,-99.99,,2013-03-25 11:52:00,
2013-03-25 06:02:00,12.0,3.0,-100.00,West,270,0.0,5.0,65,0.00,,,-99.99,,2013-03-25 12:02:00,
2013-03-25 06:22:00,12.0,3.0,-100.00,NW,310,0.0,2.0,65,0.00,,,-99.99,,2013-03-25 12:22:00,
2013-03-25 06:32:00,12.0,3.0,-100.00,NNE,20,2.0,4.0,65,0.00,,,-99.99,,2013-03-25 12:32:00,
2013-03-25 06:42:00,12.0,3.0,-100.00,NW,320,0.0,5.0,66,0.00,,,-99.99,,2013-03-25 12:42:00,
2013-03-25 06:52:00,12.0,3.0,-100.00,SW,230,0.0,2.0,65,0.00,,,-99.99,,2013-03-25 12:52:00,
2013-03-25 07:02:00,12.0,3.0,-100.00,SSE,155,1.0,3.0,66,0.00,,,-99.99,,2013-03-25 13:02:00,
2013-03-25 07:12:00,12.0,3.0,-100.00,NW,315,2.0,6.0,66,0.00,,,-99.99,,2013-03-25 13:12:00,
2013-03-25 07:22:00,12.0,3.0,-100.00,WNW,290,1.0,2.0,66,0.00,,,-99.99,,2013-03-25 13:22:00,
2013-03-25 07:32:00,12.0,3.0,-100.00,West,265,0.0,4.0,66,0.00,,,-99.99,,2013-03-25 13:32:00,
2013-03-25 07:42:00,12.0,3.0,-100.00,SSW,200,0.0,5.0,66,0.00,,,-99.99,,2013-03-25 13:42:00,
2013-03-25 07:52:00,12.0,3.0,-100.00,East,85,1.0,4.0,66,0.00,,,-99.99,,2013-03-25 13:52:00,
2013-03-25 08:12:00,13.0,4.0,-100.00,SSE,155,1.0,2.0,66,0.00,,,-99.99,,2013-03-25 14:12:00,
2013-03-25 08:22:00,13.0,4.0,-100.00,SW,220,1.0,2.0,66,0.00,,,-99.99,,2013-03-25 14:22:00,
2013-03-25 08:32:00,14.0,5.0,-100.00,South,175,1.0,3.0,66,0.00,,,-99.99,,2013-03-25 14:32:00,
2013-03-25 08:42:00,16.0,6.0,-100.00,South,190,1.0,3.0,65,0.00,,,-99.99,,2013-03-25 14:42:00,
2013-03-25 08:52:00,17.0,6.0,-100.00,SSE,160,1.0,4.0,61,0.00,,,-99.99,,2013-03-25 14:52:00,
2013-03-25 09:02:00,18.0,6.0,-100.00,SSW,200,1.0,4.0,59,0.00,,,-99.99,,2013-03-25 15:02:00,
2013-03-25 09:12:00,19.0,6.0,-100.00,South,170,2.0,4.0,56,0.00,,,-99.99,,2013-03-25 15:12:00,
2013-03-25 09:22:00,20.0,6.0,-100.00,South,185,2.0,4.0,54,0.00,,,-99.99,,2013-03-25 15:22:00,
2013-03-25 09:32:00,21.0,6.0,-100.00,South,170,2.0,3.0,52,0.00,,,-99.99,,2013-03-25 15:32:00,
2013-03-25 09:42:00,22.0,6.0,-100.00,SSW,195,2.0,4.0,50,0.00,,,-99.99,,2013-03-25 15:42:00,
2013-03-25 09:52:00,22.0,6.0,-100.00,SSE,160,2.0,4.0,49,0.00,,,-99.99,,2013-03-25 15:52:00,
2013-03-25 10:03:00,23.0,6.0,-100.00,South,170,2.0,3.0,47,0.00,,,-99.99,,2013-03-25 16:03:00,
2013-03-25 10:12:00,24.0,7.0,-100.00,SSW,205,0.0,4.0,46,0.00,,,-99.99,,2013-03-25 16:12:00,
2013-03-25 10:22:00,25.0,6.0,-100.00,South,170,2.0,4.0,44,0.00,,,-99.99,,2013-03-25 16:22:00,
2013-03-25 10:32:00,26.0,6.0,-100.00,SSE,165,2.0,4.0,43,0.00,,,-99.99,,2013-03-25 16:32:00,
2013-03-25 10:42:00,26.0,6.0,-100.00,SSW,195,2.0,3.0,41,0.00,,,-99.99,,2013-03-25 16:42:00,
2013-03-25 10:52:00,27.0,6.0,-100.00,South,175,2.0,4.0,40,0.00,,,-99.99,,2013-03-25 16:52:00,
2013-03-25 11:02:00,28.0,6.0,-100.00,SSE,165,2.0,4.0,39,0.00,,,-99.99,,2013-03-25 17:02:00,
2013-03-25 11:12:00,28.0,6.0,-100.00,SE,135,4.0,6.0,38,0.00,,,-99.99,,2013-03-25 17:12:00,
2013-03-25 11:22:00,28.0,5.0,-100.00,SE,135,4.0,6.0,36,0.00,,,-99.99,,2013-03-25 17:22:00,
2013-03-25 11:32:00,29.0,6.0,-100.00,South,175,2.0,6.0,36,0.00,,,-99.99,,2013-03-25 17:32:00,
2013-03-25 11:42:00,30.0,6.0,-100.00,SSE,160,3.0,5.0,34,0.00,,,-99.99,,2013-03-25 17:42:00,
2013-03-25 11:51:00,31.0,6.0,-100.00,SE,130,4.0,5.0,33,0.00,,,-99.99,,2013-03-25 17:51:00,
2013-03-25 12:02:00,32.0,6.0,-100.00,SE,130,4.0,6.0,32,0.00,,,-99.99,,2013-03-25 18:02:00,
2013-03-25 12:12:00,33.0,6.0,-100.00,SSE,155,2.0,6.0,31,0.00,,,-99.99,,2013-03-25 18:12:00,
2013-03-25 12:22:00,33.0,6.0,-100.00,South,175,2.0,4.0,30,0.00,,,-99.99,,2013-03-25 18:22:00,
2013-03-25 12:32:00,34.0,5.0,-100.00,South,180,2.0,5.0,29,0.00,,,-99.99,,2013-03-25 18:32:00,
2013-03-25 12:42:00,34.0,4.0,-100.00,SSE,150,3.0,6.0,27,0.00,,,-99.99,,2013-03-25 18:42:00,
2013-03-25 13:02:00,35.0,5.0,-100.00,SSE,165,4.0,6.0,27,0.00,,,-99.99,,2013-03-25 19:02:00,
2013-03-25 13:12:00,35.0,4.0,-100.00,SSE,160,4.0,9.0,25,0.00,,,-99.99,,2013-03-25 19:12:00,
2013-03-25 13:22:00,36.0,4.0,-100.00,SSE,160,4.0,9.0,25,0.00,,,-99.99,,2013-03-25 19:22:00,
2013-03-25 13:32:00,37.0,4.0,-100.00,SE,145,3.0,6.0,24,0.00,,,-99.99,,2013-03-25 19:32:00,
2013-03-25 13:42:00,38.0,4.0,-100.00,SSE,165,2.0,4.0,23,0.00,,,-99.99,,2013-03-25 19:42:00,
2013-03-25 13:52:00,39.0,5.0,-100.00,SSE,160,2.0,6.0,23,0.00,,,-99.99,,2013-03-25 19:52:00,
2013-03-25 14:01:00,39.0,5.0,-100.00,SSE,160,2.0,6.0,23,0.00,,,-99.99,,2013-03-25 20:01:00,
2013-03-25 14:12:00,39.0,4.0,-100.00,SE,135,4.0,6.0,21,0.00,,,-99.99,,2013-03-25 20:12:00,
2013-03-25 14:22:00,40.0,4.0,-100.00,SE,140,6.0,9.0,21,0.00,,,-99.99,,2013-03-25 20:22:00,
2013-03-25 14:32:00,40.0,4.0,-100.00,South,170,4.0,9.0,21,0.00,,,-99.99,,2013-03-25 20:32:00,
2013-03-25 14:42:00,40.0,4.0,-100.00,SE,140,4.0,9.0,21,0.00,,,-99.99,,2013-03-25 20:42:00,
2013-03-25 14:52:00,40.0,4.0,-100.00,ESE,120,2.0,7.0,21,0.00,,,-99.99,,2013-03-25 20:52:00,
2013-03-25 15:02:00,40.0,4.0,-100.00,East,85,2.0,9.0,21,0.00,,,-99.99,,2013-03-25 21:02:00,
2013-03-25 15:12:00,41.0,4.0,-100.00,SE,145,2.0,9.0,21,0.00,,,-99.99,,2013-03-25 21:12:00,
2013-03-25 15:22:00,41.0,3.0,-100.00,SSE,150,3.0,9.0,20,0.00,,,-99.99,,2013-03-25 21:22:00,
2013-03-25 15:32:00,42.0,3.0,-100.00,SSE,160,4.0,9.0,19,0.00,,,-99.99,,2013-03-25 21:32:00,
2013-03-25 15:42:00,42.0,1.0,-100.00,North,0,4.0,11.0,17,0.00,,,-99.99,,2013-03-25 21:42:00,
2013-03-25 15:52:00,42.0,0.0,-100.00,SSE,165,4.0,9.0,16,0.00,,,-99.99,,2013-03-25 21:52:00,
2013-03-25 16:03:00,42.0,-1.0,-100.00,East,100,5.0,11.0,16,0.00,,,-99.99,,2013-03-25 22:03:00,
2013-03-25 16:12:00,42.0,-2.0,-100.00,South,175,4.0,11.0,15,0.00,,,-99.99,,2013-03-25 22:12:00,
2013-03-25 16:23:00,43.0,0.0,-100.00,SSE,165,4.0,13.0,16,0.00,,,-99.99,,2013-03-25 22:23:00,
2013-03-25 16:32:00,42.0,-1.0,-100.00,West,260,0.0,12.0,16,0.00,,,-99.99,,2013-03-25 22:32:00,
2013-03-25 16:42:00,43.0,1.0,-100.00,SE,125,4.0,9.0,16,0.00,,,-99.99,,2013-03-25 22:42:00,
2013-03-25 16:52:00,41.0,-1.0,-100.00,SSE,165,4.0,7.0,16,0.00,,,-99.99,,2013-03-25 22:52:00,
2013-03-25 17:02:00,40.0,-1.0,-100.00,SSE,160,3.0,12.0,17,0.00,,,-99.99,,2013-03-25 23:02:00,
2013-03-25 17:12:00,40.0,0.0,-100.00,SSW,195,4.0,8.0,18,0.00,,,-99.99,,2013-03-25 23:12:00,
2013-03-25 17:22:00,40.0,0.0,-100.00,SSE,150,4.0,9.0,18,0.00,,,-99.99,,2013-03-25 23:22:00,
2013-03-25 17:32:00,39.0,0.0,-100.00,South,190,6.0,11.0,18,0.00,,,-99.99,,2013-03-25 23:32:00,
2013-03-25 17:42:00,39.0,0.0,-100.00,SSW,195,3.0,11.0,18,0.00,,,-99.99,,2013-03-25 23:42:00,
2013-03-25 17:52:00,39.0,0.0,-100.00,SSE,165,4.0,8.0,18,0.00,,,-99.99,,2013-03-25 23:52:00,
2013-03-25 18:02:00,39.0,0.0,-100.00,South,170,2.0,8.0,18,0.00,,,-99.99,,2013-03-26 00:02:00,
2013-03-25 18:11:00,39.0,0.0,-100.00,South,190,4.0,10.0,18,0.00,,,-99.99,,2013-03-26 00:11:00,
2013-03-25 18:21:00,39.0,0.0,-100.00,South,190,1.0,6.0,18,0.00,,,-99.99,,2013-03-26 00:21:00,
2013-03-25 18:32:00,39.0,0.0,-100.00,SW,230,2.0,6.0,19,0.00,,,-99.99,,2013-03-26 00:32:00,
2013-03-25 18:42:00,38.0,0.0,-100.00,SSE,160,1.0,6.0,19,0.00,,,-99.99,,2013-03-26 00:42:00,
2013-03-25 18:52:00,38.0,1.0,-100.00,SW,225,0.0,6.0,19,0.00,,,-99.99,,2013-03-26 00:52:00,
2013-03-25 19:02:00,38.0,1.0,-100.00,SSE,155,5.0,8.0,19,0.00,,,-99.99,,2013-03-26 01:02:00,
2013-03-25 19:11:00,39.0,1.0,-100.00,SE,135,6.0,10.0,19,0.00,,,-99.99,,2013-03-26 01:11:00,
2013-03-25 19:22:00,38.0,1.0,-100.00,SSE,160,4.0,9.0,20,0.00,,,-99.99,,2013-03-26 01:22:00,
2013-03-25 19:32:00,38.0,2.0,-100.00,SE,135,4.0,9.0,21,0.00,,,-99.99,,2013-03-26 01:32:00,
2013-03-25 19:42:00,38.0,2.0,-100.00,ESE,120,2.0,7.0,21,0.00,,,-99.99,,2013-03-26 01:42:00,
2013-03-25 19:52:00,38.0,2.0,-100.00,SE,125,2.0,7.0,21,0.00,,,-99.99,,2013-03-26 01:52:00,
2013-03-25 20:02:00,37.0,2.0,-100.00,North,5,3.0,6.0,22,0.00,,,-99.99,,2013-03-26 02:02:00,
2013-03-25 20:11:00,36.0,3.0,-100.00,WNW,295,1.0,6.0,23,0.00,,,-99.99,,2013-03-26 02:11:00,
2013-03-25 20:21:00,36.0,3.0,-100.00,ENE,60,2.0,5.0,25,0.00,,,-99.99,,2013-03-26 02:21:00,
2013-03-25 20:32:00,35.0,4.0,-100.00,North,350,2.0,6.0,26,0.00,,,-99.99,,2013-03-26 02:32:00,
2013-03-25 20:42:00,34.0,4.0,-100.00,North,0,3.0,4.0,27,0.00,,,-99.99,,2013-03-26 02:42:00,
2013-03-25 20:52:00,33.0,4.0,-100.00,WNW,295,1.0,4.0,28,0.00,,,-99.99,,2013-03-26 02:52:00,
2013-03-25 21:02:00,33.0,4.0,-100.00,NW,305,1.0,4.0,29,0.00,,,-99.99,,2013-03-26 03:02:00,
2013-03-25 21:12:00,32.0,5.0,-100.00,WNW,300,0.0,3.0,30,0.00,,,-99.99,,2013-03-26 03:12:00,
2013-03-25 21:22:00,31.0,5.0,-100.00,SW,230,0.0,1.0,32,0.00,,,-99.99,,2013-03-26 03:22:00,
2013-03-25 21:33:00,31.0,6.0,-100.00,NNW,335,2.0,4.0,33,0.00,,,-99.99,,2013-03-26 03:33:00,
2013-03-25 21:42:00,31.0,6.0,-100.00,NNW,345,2.0,3.0,34,0.00,,,-99.99,,2013-03-26 03:42:00,
2013-03-25 21:52:00,31.0,6.0,-100.00,WNW,285,0.0,4.0,33,0.00,,,-99.99,,2013-03-26 03:52:00,
2013-03-25 22:03:00,31.0,6.0,-100.00,North,350,1.0,2.0,34,0.00,,,-99.99,,2013-03-26 04:03:00,
2013-03-25 22:12:00,30.0,6.0,-100.00,SE,135,0.0,2.0,34,0.00,,,-99.99,,2013-03-26 04:12:00,
2013-03-25 22:23:00,30.0,6.0,-100.00,WNW,295,0.0,3.0,35,0.00,,,-99.99,,2013-03-26 04:23:00,
2013-03-25 22:32:00,29.0,6.0,-100.00,NW,310,1.0,4.0,36,0.00,,,-99.99,,2013-03-26 04:32:00,
2013-03-25 22:43:00,29.0,6.0,-100.00,NE,50,1.0,3.0,38,0.00,,,-99.99,,2013-03-26 04:43:00,
2013-03-25 22:52:00,29.0,7.0,-100.00,North,350,2.0,4.0,39,0.00,,,-99.99,,2013-03-26 04:52:00,
2013-03-25 23:02:00,28.0,7.0,-100.00,East,90,0.0,2.0,40,0.00,,,-99.99,,2013-03-26 05:02:00,
2013-03-25 23:12:00,28.0,7.0,-100.00,SW,215,0.0,3.0,41,0.00,,,-99.99,,2013-03-26 05:12:00,
2013-03-25 23:22:00,27.0,7.0,-100.00,ENE,65,0.0,2.0,42,0.00,,,-99.99,,2013-03-26 05:22:00,
2013-03-25 23:32:00,27.0,8.0,-100.00,NNE,15,0.0,1.0,43,0.00,,,-99.99,,2013-03-26 05:32:00,
2013-03-25 23:42:00,26.0,8.0,-100.00,North,355,1.0,2.0,45,0.00,,,-99.99,,2013-03-26 05:42:00,
2013-03-25 23:52:00,26.0,8.0,-100.00,North,0,1.0,2.0,47,0.00,,,-99.99,,2013-03-26 05:52:00,